WMT63T LATI-LIMJ

Flight info

Callsign WMT63T
Flight time 1h 35m
Altitude 38000
Route DIRES DCT PAPIZ DCT LUMAR DCT BANAV DCT RUPAX DCT NUKNI DCT LOMED DCT RUXOL M730 KALMO
Aircraft A20N/M-SDE2E3FGHIJ1RWXY/LB1

Departure

Time 2026-04-21 17:42
Airport Tirana International Airport Mother Teresa (LATI)

Arrival

Time 2026-04-21 19:18
Airport Genoa Cristoforo Colombo Airport (LIMJ)
Time Latitude Longitude Altitude Speed Heading
2026-04-21 17:15 41.41912 19.71524 123 ft 0 kts 265°
2026-04-21 17:32 41.41912 19.71531 123 ft 2 kts 263°
2026-04-21 17:32 41.41915 19.71560 121 ft 2 kts 264°
2026-04-21 17:32 41.41916 19.71583 119 ft 2 kts 327°
2026-04-21 17:32 41.41900 19.71588 119 ft 2 kts 355°
2026-04-21 17:33 41.41893 19.71589 119 ft 0 kts 355°
2026-04-21 17:36 41.41914 19.71586 119 ft 6 kts 354°
2026-04-21 17:36 41.41973 19.71578 121 ft 11 kts 354°
2026-04-21 17:36 41.42058 19.71567 120 ft 14 kts 354°
2026-04-21 17:36 41.42175 19.71551 117 ft 20 kts 354°
2026-04-21 17:37 41.42315 19.71532 118 ft 19 kts 354°
2026-04-21 17:37 41.42438 19.71515 116 ft 17 kts 354°
2026-04-21 17:37 41.42517 19.71504 116 ft 11 kts 354°
2026-04-21 17:37 41.42624 19.71490 116 ft 8 kts 353°
2026-04-21 17:38 41.42664 19.71534 117 ft 10 kts 74°
2026-04-21 17:38 41.42675 19.71631 118 ft 10 kts 84°
2026-04-21 17:38 41.42682 19.71714 114 ft 8 kts 83°
2026-04-21 17:38 41.42687 19.71763 115 ft 6 kts 84°
2026-04-21 17:39 41.42689 19.71797 116 ft 0 kts 84°
2026-04-21 17:40 41.42690 19.71799 116 ft 1 kts 84°
2026-04-21 17:41 41.42693 19.71847 118 ft 9 kts 89°
2026-04-21 17:41 41.42644 19.71902 117 ft 0 kts 173°
2026-04-21 17:41 41.42570 19.71913 116 ft 41 kts 174°
2026-04-21 17:41 41.42033 19.71987 122 ft 111 kts 174°
2026-04-21 17:42 41.41077 19.72108 138 ft 162 kts 174°
2026-04-21 17:42 41.39950 19.72239 698 ft 162 kts 175°
2026-04-21 17:42 41.38766 19.72367 1166 ft 179 kts 175°
2026-04-21 17:42 41.37469 19.72522 1667 ft 194 kts 175°
2026-04-21 17:43 41.36070 19.72707 2123 ft 211 kts 175°
2026-04-21 17:43 41.34531 19.72920 2558 ft 234 kts 175°
2026-04-21 17:43 41.32828 19.73159 3115 ft 256 kts 175°
2026-04-21 17:43 41.31043 19.73416 4030 ft 260 kts 176°
2026-04-21 17:44 41.29219 19.73677 4927 ft 266 kts 176°
2026-04-21 17:44 41.27364 19.73942 5880 ft 270 kts 177°
2026-04-21 17:44 41.25482 19.74066 6784 ft 270 kts 191°
2026-04-21 17:44 41.23720 19.73301 7636 ft 267 kts 215°
2026-04-21 17:45 41.22379 19.71648 8502 ft 263 kts 239°
2026-04-21 17:45 41.21595 19.69477 9442 ft 262 kts 250°
2026-04-21 17:45 41.20904 19.67223 10323 ft 266 kts 250°
2026-04-21 17:45 41.20175 19.64853 10715 ft 289 kts 250°
2026-04-21 17:46 41.19381 19.62291 11030 ft 311 kts 250°
2026-04-21 17:46 41.18541 19.59608 11715 ft 317 kts 250°
2026-04-21 17:46 41.17684 19.56891 12531 ft 321 kts 250°
2026-04-21 17:46 41.16828 19.54176 13354 ft 324 kts 250°
2026-04-21 17:47 41.15952 19.51399 14103 ft 328 kts 250°
2026-04-21 17:47 41.15067 19.48592 14809 ft 332 kts 250°
2026-04-21 17:47 41.14172 19.45757 15531 ft 335 kts 250°
2026-04-21 17:47 41.13267 19.42890 16253 ft 338 kts 250°
2026-04-21 17:48 41.12354 19.40000 16954 ft 341 kts 250°
2026-04-21 17:48 41.11429 19.37079 17644 ft 345 kts 251°
2026-04-21 17:48 41.10496 19.34134 18304 ft 349 kts 251°
2026-04-21 17:48 41.09550 19.31151 18912 ft 351 kts 251°
2026-04-21 17:49 41.08595 19.28142 19529 ft 354 kts 251°
2026-04-21 17:49 41.07633 19.25114 20119 ft 357 kts 251°
2026-04-21 17:49 41.06630 19.22086 20718 ft 361 kts 247°
2026-04-21 17:49 41.05393 19.19213 21302 ft 367 kts 241°
2026-04-21 17:50 41.03859 19.16470 21876 ft 374 kts 234°
2026-04-21 17:50 41.02099 19.13902 22440 ft 379 kts 232°
2026-04-21 17:50 41.00308 19.11320 23002 ft 382 kts 232°
2026-04-21 17:50 40.98511 19.08715 23546 ft 385 kts 232°
2026-04-21 17:51 40.96698 19.06085 24003 ft 388 kts 232°
2026-04-21 17:51 40.94890 19.03417 24450 ft 389 kts 236°
2026-04-21 17:51 40.93459 19.00425 24893 ft 384 kts 249°
2026-04-21 17:51 40.92606 18.97101 25333 ft 380 kts 262°
2026-04-21 17:52 40.92360 18.93636 25781 ft 378 kts 274°
2026-04-21 17:52 40.92717 18.90200 26221 ft 378 kts 285°
2026-04-21 17:52 40.93657 18.86954 26652 ft 380 kts 297°
2026-04-21 17:52 40.95103 18.84017 27084 ft 383 kts 304°
2026-04-21 17:53 40.96656 18.81138 27519 ft 384 kts 304°
2026-04-21 17:53 40.98206 18.78249 27945 ft 386 kts 304°
2026-04-21 17:53 40.99759 18.75339 28346 ft 388 kts 304°
2026-04-21 17:53 41.01316 18.72416 28748 ft 389 kts 304°
2026-04-21 17:54 41.02878 18.69476 29148 ft 390 kts 304°
2026-04-21 17:54 41.04443 18.66529 29515 ft 392 kts 304°
2026-04-21 17:54 41.06017 18.63561 29881 ft 394 kts 304°
2026-04-21 17:54 41.07594 18.60587 30215 ft 395 kts 304°
2026-04-21 17:55 41.09176 18.57597 30514 ft 397 kts 303°
2026-04-21 17:55 41.10769 18.54587 30805 ft 400 kts 303°
2026-04-21 17:55 41.12367 18.51563 31127 ft 401 kts 303°
2026-04-21 17:55 41.13946 18.48573 31495 ft 400 kts 303°
2026-04-21 17:56 41.15542 18.45548 31881 ft 400 kts 303°
2026-04-21 17:56 41.17133 18.42530 32273 ft 399 kts 303°
2026-04-21 17:56 41.18722 18.39513 32646 ft 398 kts 303°
2026-04-21 17:56 41.20312 18.36488 33003 ft 398 kts 303°
2026-04-21 17:57 41.21892 18.33482 33360 ft 397 kts 303°
2026-04-21 17:57 41.23471 18.30474 33709 ft 397 kts 303°
2026-04-21 17:57 41.25048 18.27466 34019 ft 396 kts 303°
2026-04-21 17:57 41.26623 18.24459 34280 ft 396 kts 303°
2026-04-21 17:58 41.28198 18.21450 34519 ft 397 kts 303°
2026-04-21 17:58 41.29775 18.18433 34760 ft 397 kts 303°
2026-04-21 17:58 41.31352 18.15414 34986 ft 397 kts 303°
2026-04-21 17:58 41.32927 18.12395 35212 ft 397 kts 303°
2026-04-21 17:59 41.34504 18.09372 35446 ft 398 kts 303°
2026-04-21 17:59 41.36061 18.06381 35670 ft 398 kts 303°
2026-04-21 17:59 41.37635 18.03355 35899 ft 398 kts 303°
2026-04-21 17:59 41.39208 18.00329 36099 ft 398 kts 303°
2026-04-21 18:00 41.40784 17.97295 36298 ft 398 kts 303°
2026-04-21 18:00 41.42358 17.94260 36505 ft 398 kts 303°
2026-04-21 18:00 41.43932 17.91221 36711 ft 398 kts 303°
2026-04-21 18:00 41.45505 17.88183 36901 ft 398 kts 302°
2026-04-21 18:01 41.47077 17.85144 37093 ft 398 kts 302°
2026-04-21 18:01 41.48646 17.82106 37282 ft 398 kts 302°
2026-04-21 18:01 41.50215 17.79067 37469 ft 398 kts 302°
2026-04-21 18:01 41.51782 17.76026 37649 ft 398 kts 302°
2026-04-21 18:02 41.53351 17.72981 37827 ft 397 kts 302°
2026-04-21 18:02 41.54920 17.69933 37938 ft 398 kts 302°
2026-04-21 18:02 41.58040 17.63861 37940 ft 396 kts 302°
2026-04-21 18:03 41.60822 17.57582 37942 ft 395 kts 295°
2026-04-21 18:03 41.62910 17.50805 37937 ft 394 kts 288°
2026-04-21 18:04 41.64382 17.43746 37943 ft 394 kts 285°
2026-04-21 18:04 41.65817 17.36667 37945 ft 394 kts 285°
2026-04-21 18:05 41.67239 17.29583 37949 ft 394 kts 285°
2026-04-21 18:05 41.68649 17.22489 37943 ft 395 kts 285°
2026-04-21 18:06 41.70056 17.15383 37941 ft 395 kts 285°
2026-04-21 18:06 41.71459 17.08272 37939 ft 395 kts 285°
2026-04-21 18:07 41.73031 17.01284 37937 ft 395 kts 290°
2026-04-21 18:07 41.75375 16.94550 37944 ft 403 kts 296°
2026-04-21 18:08 41.77948 16.87795 37946 ft 410 kts 296°
2026-04-21 18:08 41.80545 16.80940 37944 ft 415 kts 296°
2026-04-21 18:09 41.83167 16.74011 37948 ft 418 kts 296°
2026-04-21 18:09 41.85796 16.67052 37948 ft 418 kts 296°
2026-04-21 18:10 41.88419 16.60093 37947 ft 417 kts 296°
2026-04-21 18:10 41.91032 16.53142 37947 ft 417 kts 295°
2026-04-21 18:11 41.93622 16.46235 37948 ft 417 kts 295°
2026-04-21 18:11 41.96230 16.39265 37951 ft 417 kts 295°
2026-04-21 18:12 41.98830 16.32295 37955 ft 417 kts 295°
2026-04-21 18:12 42.01428 16.25318 37952 ft 417 kts 295°
2026-04-21 18:13 42.04021 16.18335 37951 ft 417 kts 295°
2026-04-21 18:13 42.06610 16.11346 37945 ft 417 kts 295°
2026-04-21 18:14 42.10489 16.00843 37943 ft 417 kts 295°
2026-04-21 18:15 42.13067 15.93840 37949 ft 417 kts 295°
2026-04-21 18:15 42.15641 15.86832 37953 ft 417 kts 295°
2026-04-21 18:16 42.18212 15.79815 37952 ft 417 kts 295°
2026-04-21 18:16 42.20777 15.72796 37956 ft 417 kts 295°
2026-04-21 18:17 42.23322 15.65815 37955 ft 417 kts 295°
2026-04-21 18:17 42.25880 15.58784 37958 ft 417 kts 295°
2026-04-21 18:18 42.28436 15.51738 37958 ft 418 kts 295°
2026-04-21 18:18 42.31011 15.44710 37962 ft 418 kts 296°
2026-04-21 18:19 42.33844 15.37839 37959 ft 419 kts 298°
2026-04-21 18:19 42.36702 15.30978 37959 ft 419 kts 297°
2026-04-21 18:20 42.39531 15.24085 37964 ft 419 kts 297°
2026-04-21 18:20 42.42349 15.17167 37968 ft 419 kts 297°
2026-04-21 18:21 42.45141 15.10288 37969 ft 419 kts 297°
2026-04-21 18:21 42.47949 15.03355 37971 ft 420 kts 297°
2026-04-21 18:22 42.50755 14.96410 37977 ft 420 kts 297°
2026-04-21 18:22 42.53555 14.89464 37978 ft 420 kts 297°
2026-04-21 18:23 42.56354 14.82503 37983 ft 420 kts 297°
2026-04-21 18:23 42.59142 14.75553 37984 ft 419 kts 297°
2026-04-21 18:24 42.61924 14.68600 37980 ft 419 kts 297°
2026-04-21 18:24 42.64699 14.61650 37984 ft 418 kts 297°
2026-04-21 18:25 42.67445 14.54754 37984 ft 418 kts 297°
2026-04-21 18:25 42.70204 14.47810 37988 ft 417 kts 297°
2026-04-21 18:26 42.72954 14.40873 37992 ft 416 kts 297°
2026-04-21 18:26 42.75234 14.35106 37990 ft 416 kts 297°
2026-04-21 18:27 42.77968 14.28179 37991 ft 415 kts 297°
2026-04-21 18:27 42.80693 14.21258 37993 ft 414 kts 297°
2026-04-21 18:28 42.83407 14.14346 37994 ft 414 kts 297°
2026-04-21 18:28 42.86114 14.07437 37988 ft 413 kts 297°
2026-04-21 18:29 42.88819 14.00517 37991 ft 413 kts 297°
2026-04-21 18:29 42.91520 13.93589 38002 ft 413 kts 297°
2026-04-21 18:30 42.94214 13.86662 38005 ft 413 kts 297°
2026-04-21 18:30 42.96903 13.79733 38001 ft 413 kts 297°
2026-04-21 18:31 42.99588 13.72796 38006 ft 413 kts 297°
2026-04-21 18:31 43.02269 13.65854 38003 ft 413 kts 297°
2026-04-21 18:32 43.04944 13.58908 38006 ft 413 kts 297°
2026-04-21 18:32 43.07599 13.51999 38004 ft 412 kts 297°
2026-04-21 18:33 43.10262 13.45053 38008 ft 412 kts 296°
2026-04-21 18:33 43.12924 13.38088 38004 ft 412 kts 296°
2026-04-21 18:34 43.15575 13.31139 38006 ft 412 kts 296°
2026-04-21 18:34 43.18223 13.24179 38004 ft 412 kts 296°
2026-04-21 18:35 43.21365 13.15901 38005 ft 412 kts 296°
2026-04-21 18:35 43.27497 12.99670 38004 ft 412 kts 296°
2026-04-21 18:36 43.32750 12.85693 37997 ft 413 kts 296°
2026-04-21 18:36 43.38011 12.71625 37999 ft 413 kts 296°
2026-04-21 18:37 43.43234 12.57586 38000 ft 412 kts 296°
2026-04-21 18:37 43.50388 12.38242 38007 ft 413 kts 296°
2026-04-21 18:38 43.58575 12.15942 37995 ft 412 kts 296°
2026-04-21 18:38 43.65666 11.96482 37988 ft 412 kts 296°
2026-04-21 18:39 43.70791 11.82329 37987 ft 412 kts 296°
2026-04-21 18:39 43.75863 11.68257 37978 ft 411 kts 296°
2026-04-21 18:40 43.80957 11.54098 37954 ft 411 kts 297°
2026-04-21 18:40 43.85693 11.42539 37956 ft 412 kts 298°
2026-04-21 18:41 43.90235 11.31398 37946 ft 412 kts 298°
2026-04-21 18:41 43.93035 11.24464 37948 ft 412 kts 298°
2026-04-21 18:42 43.95831 11.17524 37946 ft 411 kts 298°
2026-04-21 18:42 43.98617 11.10593 37958 ft 411 kts 298°
2026-04-21 18:43 44.01325 11.03841 37812 ft 382 kts 298°
2026-04-21 18:43 44.02486 11.00599 37332 ft 370 kts 293°
2026-04-21 18:43 44.03396 10.97277 36487 ft 367 kts 288°
2026-04-21 18:43 44.04122 10.93871 35617 ft 367 kts 287°
2026-04-21 18:44 44.04847 10.90478 34769 ft 366 kts 288°
2026-04-21 18:44 44.05565 10.87150 33957 ft 364 kts 288°
2026-04-21 18:44 44.06313 10.83805 33120 ft 361 kts 289°
2026-04-21 18:44 44.07042 10.80426 32648 ft 369 kts 287°
2026-04-21 18:45 44.07752 10.76957 32392 ft 376 kts 287°
2026-04-21 18:45 44.08474 10.73448 32118 ft 376 kts 287°
2026-04-21 18:45 44.09202 10.69956 31871 ft 375 kts 287°
2026-04-21 18:45 44.09936 10.66476 31615 ft 376 kts 288°
2026-04-21 18:46 44.10678 10.62983 31356 ft 378 kts 288°
2026-04-21 18:46 44.11425 10.59471 31095 ft 379 kts 287°
2026-04-21 18:46 44.12173 10.55947 30853 ft 379 kts 288°
2026-04-21 18:46 44.12917 10.52437 30578 ft 377 kts 287°
2026-04-21 18:47 44.13463 10.48892 30114 ft 376 kts 277°
2026-04-21 18:47 44.13337 10.45254 29477 ft 379 kts 265°
2026-04-21 18:47 44.12852 10.41663 28827 ft 376 kts 264°
2026-04-21 18:47 44.12345 10.38103 28207 ft 373 kts 264°
2026-04-21 18:48 44.11839 10.34592 27555 ft 370 kts 263°
2026-04-21 18:48 44.11332 10.31086 26951 ft 367 kts 263°
2026-04-21 18:48 44.10830 10.27619 26370 ft 364 kts 264°
2026-04-21 18:48 44.10328 10.24177 25781 ft 361 kts 263°
2026-04-21 18:49 44.09906 10.20800 25203 ft 355 kts 269°
2026-04-21 18:49 44.10017 10.17415 24538 ft 347 kts 283°
2026-04-21 18:49 44.10473 10.15260 24022 ft 344 kts 294°
2026-04-21 18:49 44.11933 10.11406 23209 ft 337 kts 298°
2026-04-21 18:50 44.13046 10.08551 22503 ft 335 kts 298°
2026-04-21 18:50 44.14153 10.05714 22052 ft 329 kts 298°
2026-04-21 18:50 44.15214 10.03004 21858 ft 309 kts 298°
2026-04-21 18:50 44.16213 10.00450 21666 ft 292 kts 298°
2026-04-21 18:51 44.17169 9.98007 21246 ft 282 kts 298°
2026-04-21 18:51 44.18108 9.95609 21161 ft 288 kts 298°
2026-04-21 18:51 44.19075 9.93132 21067 ft 291 kts 298°
2026-04-21 18:51 44.20039 9.90664 20959 ft 288 kts 298°
2026-04-21 18:52 44.20993 9.88220 20921 ft 287 kts 298°
2026-04-21 18:52 44.21946 9.85771 20918 ft 288 kts 298°
2026-04-21 18:52 44.22904 9.83313 20918 ft 288 kts 298°
2026-04-21 18:52 44.23852 9.80878 20638 ft 284 kts 298°
2026-04-21 18:53 44.24794 9.78457 20121 ft 283 kts 298°
2026-04-21 18:53 44.25728 9.76056 19531 ft 281 kts 298°
2026-04-21 18:53 44.26655 9.73663 18913 ft 280 kts 298°
2026-04-21 18:53 44.27581 9.71278 18340 ft 278 kts 298°
2026-04-21 18:54 44.28499 9.68907 17666 ft 276 kts 298°
2026-04-21 18:54 44.29411 9.66558 17043 ft 274 kts 298°
2026-04-21 18:54 44.30317 9.64218 16358 ft 274 kts 298°
2026-04-21 18:54 44.31210 9.61903 15734 ft 273 kts 298°
2026-04-21 18:55 44.31808 9.60361 15331 ft 272 kts 298°
2026-04-21 18:55 44.33022 9.57268 14497 ft 271 kts 298°
2026-04-21 18:55 44.33936 9.54964 13875 ft 271 kts 298°
2026-04-21 18:55 44.34852 9.52667 13171 ft 271 kts 298°
2026-04-21 18:56 44.35766 9.50367 12518 ft 271 kts 298°
2026-04-21 18:56 44.36674 9.48062 11903 ft 270 kts 298°
2026-04-21 18:56 44.37578 9.45762 11370 ft 267 kts 298°
2026-04-21 18:56 44.38464 9.43490 11238 ft 273 kts 297°
2026-04-21 18:57 44.38985 9.40968 11217 ft 276 kts 273°
2026-04-21 18:57 44.38650 9.38311 10986 ft 278 kts 249°
2026-04-21 18:57 44.37514 9.36116 10528 ft 284 kts 224°
2026-04-21 18:57 44.35786 9.34797 9951 ft 294 kts 198°
2026-04-21 18:58 44.33756 9.34637 9404 ft 296 kts 171°
2026-04-21 18:58 44.31878 9.35764 9165 ft 295 kts 145°
2026-04-21 18:58 44.30204 9.37526 9036 ft 302 kts 143°
2026-04-21 18:58 44.28580 9.39269 8947 ft 295 kts 143°
2026-04-21 18:59 44.26973 9.41121 8933 ft 298 kts 132°
2026-04-21 18:59 44.25773 9.43448 8941 ft 300 kts 123°
2026-04-21 18:59 44.24631 9.45872 8946 ft 299 kts 123°
2026-04-21 18:59 44.23491 9.48291 8948 ft 298 kts 123°
2026-04-21 19:00 44.22351 9.50711 8945 ft 299 kts 123°
2026-04-21 19:00 44.21207 9.53134 8942 ft 299 kts 123°
2026-04-21 19:00 44.20063 9.55558 8935 ft 299 kts 123°
2026-04-21 19:00 44.18918 9.57983 8940 ft 299 kts 123°
2026-04-21 19:01 44.17656 9.60258 8934 ft 297 kts 140°
2026-04-21 19:01 44.15890 9.61675 8864 ft 293 kts 165°
2026-04-21 19:01 44.13925 9.61903 8776 ft 277 kts 191°
2026-04-21 19:01 44.12085 9.61448 8646 ft 261 kts 193°
2026-04-21 19:02 44.10356 9.60993 8502 ft 246 kts 193°
2026-04-21 19:02 44.08699 9.60558 8172 ft 240 kts 193°
2026-04-21 19:02 44.07060 9.60121 7763 ft 239 kts 193°
2026-04-21 19:02 44.05430 9.59675 7365 ft 238 kts 193°
2026-04-21 19:03 44.03814 9.59221 6982 ft 236 kts 193°
2026-04-21 19:03 44.02207 9.58758 6600 ft 235 kts 193°
2026-04-21 19:03 44.00630 9.58291 6237 ft 233 kts 193°
2026-04-21 19:03 43.99062 9.57819 6088 ft 233 kts 193°
2026-04-21 19:04 43.97479 9.57306 6033 ft 233 kts 201°
2026-04-21 19:04 43.96165 9.56067 6028 ft 230 kts 233°
2026-04-21 19:04 43.95542 9.54068 6039 ft 228 kts 266°
2026-04-21 19:04 43.95797 9.51941 6039 ft 226 kts 298°
2026-04-21 19:05 43.96850 9.50356 6041 ft 226 kts 330°
2026-04-21 19:05 43.98255 9.49348 6041 ft 227 kts 333°
2026-04-21 19:05 43.99671 9.48382 6039 ft 227 kts 334°
2026-04-21 19:05 44.01087 9.47418 6035 ft 227 kts 333°
2026-04-21 19:06 44.02508 9.46451 6037 ft 227 kts 333°
2026-04-21 19:06 44.03925 9.45487 6037 ft 227 kts 333°
2026-04-21 19:06 44.05345 9.44522 6037 ft 227 kts 333°
2026-04-21 19:06 44.06762 9.43559 6035 ft 227 kts 333°
2026-04-21 19:07 44.08182 9.42594 6037 ft 227 kts 333°
2026-04-21 19:07 44.09595 9.41634 5979 ft 225 kts 333°
2026-04-21 19:07 44.10997 9.40680 5705 ft 225 kts 333°
2026-04-21 19:07 44.12403 9.39718 5349 ft 225 kts 333°
2026-04-21 19:08 44.13791 9.38762 5002 ft 225 kts 333°
2026-04-21 19:08 44.15194 9.37787 4678 ft 224 kts 333°
2026-04-21 19:08 44.16576 9.36821 4554 ft 225 kts 333°
2026-04-21 19:08 44.17980 9.35836 4539 ft 225 kts 333°
2026-04-21 19:09 44.19377 9.34857 4534 ft 225 kts 333°
2026-04-21 19:09 44.20774 9.33877 4533 ft 225 kts 333°
2026-04-21 19:09 44.22171 9.32898 4528 ft 225 kts 333°
2026-04-21 19:09 44.23572 9.31916 4531 ft 225 kts 333°
2026-04-21 19:10 44.24976 9.30933 4531 ft 225 kts 333°
2026-04-21 19:10 44.26379 9.29950 4530 ft 225 kts 333°
2026-04-21 19:10 44.27777 9.28971 4528 ft 225 kts 333°
2026-04-21 19:10 44.29175 9.27991 4532 ft 225 kts 333°
2026-04-21 19:11 44.30571 9.26999 4530 ft 225 kts 330°
2026-04-21 19:11 44.31746 9.25608 4531 ft 225 kts 307°
2026-04-21 19:11 44.32475 9.23779 4549 ft 205 kts 292°
2026-04-21 19:11 44.32926 9.22009 4536 ft 192 kts 287°
2026-04-21 19:12 44.33194 9.20788 4534 ft 194 kts 287°
2026-04-21 19:12 44.33715 9.18411 4532 ft 193 kts 287°
2026-04-21 19:12 44.34110 9.16617 4529 ft 193 kts 287°
2026-04-21 19:12 44.34507 9.14813 4468 ft 194 kts 287°
2026-04-21 19:13 44.34903 9.13017 4227 ft 193 kts 287°
2026-04-21 19:13 44.35163 9.11833 4043 ft 192 kts 287°
2026-04-21 19:13 44.35555 9.10052 3772 ft 191 kts 287°
2026-04-21 19:13 44.35946 9.08277 3498 ft 191 kts 287°
2026-04-21 19:14 44.36335 9.06509 3228 ft 190 kts 287°
2026-04-21 19:14 44.36723 9.04743 2961 ft 189 kts 287°
2026-04-21 19:14 44.37109 9.02988 2698 ft 189 kts 287°
2026-04-21 19:14 44.37494 9.01237 2431 ft 188 kts 287°
2026-04-21 19:15 44.37878 8.99496 2163 ft 186 kts 287°
2026-04-21 19:15 44.38242 8.97836 1916 ft 169 kts 287°
2026-04-21 19:15 44.38569 8.96351 1683 ft 151 kts 287°
2026-04-21 19:15 44.38863 8.95012 1459 ft 138 kts 287°
2026-04-21 19:16 44.39139 8.93758 1276 ft 136 kts 286°
2026-04-21 19:16 44.39420 8.92499 1084 ft 134 kts 288°
2026-04-21 19:16 44.39723 8.91279 891 ft 134 kts 288°
2026-04-21 19:16 44.40024 8.90030 714 ft 134 kts 286°
2026-04-21 19:17 44.40532 8.87526 356 ft 133 kts 284°
2026-04-21 19:17 44.40780 8.86274 151 ft 134 kts 285°
2026-04-21 19:17 44.41022 8.85063 15 ft 124 kts 284°
2026-04-21 19:18 44.41156 8.84225 26 ft 59 kts 289°
2026-04-21 19:18 44.41232 8.84006 21 ft 26 kts 288°
2026-04-21 19:18 44.41304 8.83795 19 ft 23 kts 315°
2026-04-21 19:18 44.41402 8.83761 21 ft 13 kts 39°
2026-04-21 19:19 44.41412 8.83872 20 ft 10 kts 105°
2026-04-21 19:19 44.41394 8.83961 19 ft 11 kts 106°
2026-04-21 19:19 44.41378 8.84040 18 ft 9 kts 105°
2026-04-21 19:19 44.41356 8.84150 17 ft 14 kts 106°
2026-04-21 19:20 44.41337 8.84245 16 ft 10 kts 105°
2026-04-21 19:20 44.41318 8.84342 18 ft 11 kts 106°
2026-04-21 19:20 44.41332 8.84444 18 ft 12 kts 51°
2026-04-21 19:20 44.41378 8.84524 18 ft 12 kts 52°
2026-04-21 19:21 44.41432 8.84622 18 ft 12 kts 53°
2026-04-21 19:21 44.41485 8.84717 18 ft 14 kts 51°
2026-04-21 19:21 44.41529 8.84799 18 ft 11 kts 53°
2026-04-21 19:21 44.41573 8.84879 18 ft 8 kts 50°
2026-04-21 19:22 44.41605 8.84928 18 ft 7 kts 47°
2026-04-21 19:22 44.41637 8.84978 18 ft 6 kts 53°
2026-04-21 19:22 44.41619 8.85020 18 ft 0 kts 168°
2026-04-21 19:22 44.41616 8.85017 18 ft 2 kts 193°
2026-04-21 19:23 44.41606 8.85013 19 ft 2 kts 195°
2026-04-21 19:23 44.41594 8.85008 18 ft 0 kts 195°